sat.trackr.live / text

‹ back to catalog

KUIPER-00250

NORAD 67155 · 2025-301Y

PAYLOAD ACTIVE UNKNOWN

§ Identity

Operator
Country
US
Launch date
2025-12-16
Launch site
AFETR
Launch vehicle
Mass (kg)
RCS (m²)

External: N2YO · Heavens-Above · Gunter

§ Orbital elements

Epoch: 2026-05-25T03:08:57.494400Z

Period
97.30 min
Inclination
51.8994°
Eccentricity
0.0001082
Mean motion
14.79981038 rev/d
Perigee alt
628.6 km
Apogee alt
630.1 km
Semi-major
7,007.5 km
B*
4.1571e-4
RAAN
92.5763°
Arg perigee
71.2684°
Mean anomaly
288.8396°
Rev number
2,501

§ Raw data

KUIPER-002501 67155U 25301Y   26145.13122100  .00002953  00000+0  41571-3 0  99922 67155  51.8994  92.5763 0001082  71.2684 288.8396 14.79981038 25015

JSON: /api/v1/satellites/67155 · /tle

For live sub-satellite position, see the globe view (requires WebGL).

§ Visibility from observer

Set your observer location to see the next 7 days of passes ≥ 10°. The values pass through the URL so the page stays shareable.

No JS? Fill the form by hand. The geolocation button needs JavaScript.